Location: Dal�� Lhota
(48.7500°N, 14.0167°E)
Time: 02:40:17
(UTC+00:00)

Cosmos 1833 Rocket - Pass Details

Date: 24 September 2020
Orbit: 831 x 841 km, 71.0° (Epoch: 29 October)

Event Time Altitude Azimuth Distance (km) Brightness Sun altitude
Rises 20:03:33 0° 327° (NNW) 3,407 6.9 -29.6°
Reaches altitude 10° 20:06:07 10° 320° (NW) 2,468 6.0 -29.9°
Maximum altitude 20:11:23 41° 252° (WSW) 1,195 3.6 -30.6°
Enters shadow 20:11:45 41° 242° (WSW) 1,205 3.5 -30.6°
